Find Starlink 4067

NORAD ID: 52668 Int'l Des: 2022-053 Owner: SPXS Country: US Constellation: starlink operational
LEOCIRCULAR

实时位置

正在加载3D地球...

关于 Starlink 4067

正在加载描述...

即将过境

Passes for default location (London). Set your location on the main map for personalized predictions.

高度历史

Loading altitude history...

两行轨道根数

1 52668U 22053N 26122.45241076 -.00000498 00000-0 -13182-4 0 9993
2 52668 53.2192 272.7727 0001702 91.0625 269.0562 15.08831384219168
Epoch: May 2, 2026 • Age: 6 hours

当前状态

高度 544.3 km
速度 7.59 km/s
星下点 -15.16°S, 142.35°E
发射日期 May 18, 2022
运行时间 3.9 years
类型 internet

技术详情

分类 Payload
质量 297.00 kg
干质量 275.00 kg
总质量 297.00 kg
长度 0.20 m
直径 2.80 m
跨度 9.00 m
形状 Box + pan
制造商 SPXS
平台类型 Starlink
阶段状态 In Orbit
所有者/国家 SPXS/US

Most Searched